Location: Cisewo
(53.3833°N, 14.9000°E)
Time: 12:19:35
(UTC+00:00)

Cosmos 1812 Rocket - Pass Details

Date: 18 April 2021
Orbit: 606 x 632 km, 82.5° (Epoch: 14 May)

Event Time Altitude Azimuth Distance (km) Brightness Sun altitude
Exits shadow 19:10:52 - 152° (SSE) 2,101 5.7 -9.3°
Reaches altitude 10° 19:11:09 10° 151° (SSE) 2,000 5.6 -9.4°
Maximum altitude 19:15:02 31° 89° (E) 1,118 4.4 -9.9°
Drops below altitude 10° 19:18:58 10° 28° (NNE) 2,024 6.3 -10.3°
Sets 19:21:24 0° 18° (NNE) 2,939 7.3 -10.6°
